MST,Max TemperatureF,Mean TemperatureF,Min TemperatureF,Max Dew PointF,MeanDew PointF,Min DewpointF,Max Humidity, Mean Humidity, Min Humidity, Max Sea Level PressureIn, Mean Sea Level PressureIn, Min Sea Level PressureIn, Max VisibilityMiles, Mean VisibilityMiles, Min VisibilityMiles, Max Wind SpeedMPH, Mean Wind SpeedMPH, Max Gust SpeedMPH,PrecipitationIn, CloudCover, Events, WindDirDegrees
2012-12-1,73,63,53,50,47,45,82,58,36,30.13,30.05,30.00,10,10,10,10,4,,0.00,0,,177
2012-12-2,75,62,50,46,44,41,76,51,31,30.07,30.00,29.92,10,10,8,21,5,26,0.00,0,,183
2012-12-3,75,65,55,48,46,45,72,51,36,30.18,30.08,29.98,10,10,10,9,4,,0.00,0,,95
2012-12-4,73,63,53,46,44,41,72,51,33,30.28,30.21,30.16,10,10,9,17,5,24,0.00,0,,17
2012-12-5,71,60,48,45,41,39,76,49,33,30.17,30.07,29.97,10,10,10,15,4,,0.00,0,,17
2012-12-6,73,62,50,46,42,37,76,50,29,29.97,29.91,29.83,10,10,10,17,5,21,0.00,0,,15
2012-12-7,71,60,48,41,34,27,71,41,19,30.00,29.94,29.90,10,10,10,26,5,32,0.00,0,,13
2012-12-8,68,54,41,30,25,19,57,33,18,30.00,29.94,29.89,10,10,8,5,2,,0.00,0,,94
2012-12-9,66,55,44,32,23,18,49,30,16,30.25,30.07,29.95,10,10,10,30,7,44,0.00,0,,360
2012-12-10,60,54,48,23,20,18,35,27,20,30.29,30.20,30.10,10,10,10,28,18,34,0.00,0,,13
2012-12-11,64,56,46,27,23,19,43,30,21,30.14,30.05,29.98,10,10,10,17,8,,0.00,0,,6
2012-12-12,62,52,41,30,23,18,61,33,18,29.98,29.90,29.83,10,10,10,8,2,,0.00,0,,156
2012-12-13,66,57,48,52,33,18,100,49,24,29.86,29.79,29.68,10,9,3,30,7,36,0.39,4,,162
2012-12-14,57,52,48,52,44,37,100,75,51,29.97,29.79,29.60,10,8,2,25,14,30,0.53,7,,153
2012-12-15,55,50,44,46,41,32,100,73,41,30.06,29.98,29.93,10,10,4,15,8,16,0.08,3,,168
2012-12-16,57,49,41,45,39,36,93,70,44,30.18,30.12,30.06,10,10,10,8,3,,0.00,2,,173
2012-12-17,59,54,50,45,42,39,82,68,48,30.17,30.14,30.05,10,10,10,13,4,16,0.00,8,,180
2012-12-18,59,54,46,50,41,27,88,63,38,29.88,29.77,29.69,10,9,1,21,9,26,0.39,6,,196
2012-12-19,50,46,41,36,21,14,81,38,24,30.42,30.19,29.83,10,10,10,26,12,32,0.00,0,,6
2012-12-20,50,44,39,23,21,18,52,39,28,30.43,30.34,30.24,10,10,10,23,19,32,0.00,0,,13
2012-12-21,55,48,42,28,24,19,53,39,25,30.25,30.17,30.11,10,10,10,22,18,28,0.00,0,,13
2012-12-22,55,48,41,36,30,25,71,52,33,30.17,30.12,30.07,10,10,10,13,6,,0.00,0,,359
2012-12-23,57,48,39,37,35,32,87,62,38,30.18,30.10,30.04,10,10,10,8,2,,0.00,1,,166
2012-12-24,62,52,42,43,33,10,76,52,18,30.13,29.99,29.89,10,10,10,21,6,28,0.00,2,,166
2012-12-25,53,47,41,27,16,10,57,28,18,30.24,30.14,30.04,10,10,10,26,15,33,0.00,0,,11
2012-12-26,53,44,35,32,28,23,75,54,35,30.03,29.93,29.86,10,10,10,13,4,16,0.00,2,,166
2012-12-27,55,44,33,34,29,27,87,60,33,30.10,29.97,29.92,10,10,10,15,2,,0.00,0,,27
2012-12-28,55,48,41,30,25,18,61,42,23,30.25,30.17,30.10,10,10,10,20,10,23,0.00,0,,20
2012-12-29,57,46,35,28,26,21,75,50,26,30.18,30.08,29.99,10,10,10,10,3,,0.00,1,,168
2012-12-30,55,46,37,32,29,25,81,55,31,30.01,29.95,29.88,10,10,10,16,3,21,0.00,4,,360
2012-12-31,51,44,37,32,22,14,81,44,22,30.27,30.17,30.01,10,10,10,21,6,28,0.00,0,,20